Dewpoint
63 64 63 65 64 64 63 64 64 64 63 62 62 62 62 61 60 59 58 57 54 54 53 53 52 51 52 51 50 49 47 49
61 63 64 63 63 62 62 63 63 63 62 61 61 61 61 60 59 58 56 55 54 55 53 52 52 50 51 49 46 47 47 48
56 60 62 62 61 61 62 62 62 61 61 60 60 60 59 56 58 57 55 54 56 53 50 49 47 49 50 44 40 39 44 47
52 50 55 62 61 61 61 61 60 59 59 59 58 58 56 57 58 57 55 55 51 49 46 42 40 41 39 37 33 33 38 45
57 55 58 61 60 60 59 59 58 58 58 57 58 59 56 56 55 54 51 47 43 41 39 37 35 37 36 33 31 31 34 37
61 61 61 59 59 59 58 56 57 56 56 57 59 58 55 54 54 50 46 43 40 39 38 35 33 33 34 32 31 32 32 33
61 60 59 58 57 57 57 57 57 59 60 60 59 58 57 53 50 47 43 39 37 35 34 33 32 32 34 32 31 32 31 31
61 59 57 57 56 57 57 59 61 60 59 60 59 56 52 48 45 43 40 38 35 33 32 33 34 32 33 32 32 31 31 33
60 58 55 57 57 58 59 61 60 58 57 57 53 51 49 46 44 42 39 36 35 35 35 34 34 34 32 32 31 32 31 31
58 56 57 58 58 59 59 59 58 57 54 52 51 49 48 45 43 41 39 37 36 35 35 35 35 35 32 31 31 32 31 29
57 58 57 57 57 57 57 57 56 55 52 51 49 48 45 43 42 41 38 37 36 36 36 35 34 35 34 32 32 32 31 28
58 57 57 57 56 55 55 55 54 52 51 49 48 46 42 41 41 39 38 36 36 37 36 37 36 36 35 32 34 32 31 29
57 56 56 56 55 53 53 52 51 49 48 48 48 45 43 40 39 38 36 35 36 36 36 35 36 37 33 34 33 33 31 30
57 56 55 55 54 53 52 51 51 48 47 47 47 45 43 40 38 37 36 37 37 37 36 36 37 37 33 33 30 32 31 32
56 56 55 55 54 52 50 48 48 46 46 46 47 43 43 41 38 37 37 38 37 38 37 35 32 34 35 28 25 26 30 33
56 56 55 55 53 51 49 48 47 46 45 46 47 43 41 39 38 38 39 39 38 36 34 34 33 28 32 35 33 33 31 31
56 56 55 55 54 52 50 48 47 46 45 45 46 43 41 40 39 40 38 35 33 31 31 30 32 31 31 32 34 34 34 33
56 55 55 55 54 53 50 48 46 45 45 45 44 42 40 39 38 35 34 32 30 30 31 31 32 33 34 35 35 35 34 33
56 55 55 55 55 54 52 49 47 46 45 45 42 38 35 34 34 34 32 31 32 32 33 34 34 34 34 35 36 36 36 36
57 56 56 56 56 55 53 50 48 47 46 44 40 36 35 35 36 35 32 32 33 35 34 33 32 32 33 34 34 33 33 35
Wind_Speed
25 18 21 19 21 20 19 19 17 17 17 18 19 18 17 16 15 15 15 16 16 18 19 17 18 21 20 18 18 15 15 12
13 12 14 14 14 19 16 13 14 16 17 18 17 17 16 16 15 15 16 16 17 18 19 20 19 20 18 18 16 14 13 10
3 8 12 11 14 14 15 15 15 14 14 16 15 11 12 11 13 16 17 17 18 19 19 19 19 18 19 18 16 13 11 7
16 17 8 3 6 9 10 11 11 11 10 11 11 11 10 11 13 14 15 17 19 19 19 20 18 16 15 15 13 15 14 8
17 15 12 10 9 4 8 9 8 7 10 9 10 9 10 11 11 10 13 15 14 15 17 16 17 15 14 14 15 15 13 11
13 15 15 12 9 11 8 11 7 9 10 10 8 9 9 10 11 13 14 12 15 15 15 15 17 14 13 13 12 13 13 12
15 15 17 15 12 8 10 10 11 9 8 8 10 11 10 11 14 13 13 13 15 14 14 15 13 12 12 13 15 15 15 12
16 18 15 14 14 13 13 12 10 9 7 9 11 13 14 14 15 14 12 13 12 13 14 13 11 11 11 11 13 14 14 14
18 18 15 15 16 15 13 10 11 10 8 10 13 15 17 16 15 13 13 12 13 13 12 11 11 7 8 8 9 8 12 12
17 14 16 17 16 13 11 12 12 11 11 12 14 15 17 15 15 13 12 11 11 11 9 10 7 5 3 5 7 6 6 10
18 16 18 17 13 12 12 13 12 11 11 12 14 15 14 15 14 13 12 10 9 8 7 5 3 2 2 1 5 2 3 5
15 15 16 15 14 13 11 11 9 8 11 13 15 14 14 14 13 14 12 11 8 8 7 3 2 2 3 3 9 1 2 4
19 19 17 18 16 15 13 13 10 8 9 12 14 14 14 15 14 14 10 9 9 8 4 3 3 3 2 5 4 2 0 3
17 19 21 17 15 9 6 9 5 7 9 11 13 14 14 15 16 14 11 10 8 5 3 2 2 4 4 1 5 4 2 5
27 25 23 18 14 13 9 9 6 7 10 11 12 13 15 14 14 12 9 8 8 5 5 4 2 2 2 1 3 4 6 4
23 21 21 16 18 17 17 16 13 11 15 12 13 13 14 12 10 10 9 8 9 7 5 4 3 2 2 1 3 4 4 7
18 18 18 17 18 18 18 14 10 8 11 15 13 7 7 10 12 12 12 12 7 8 6 6 2 1 2 1 3 2 4 8
19 22 24 20 20 17 19 18 16 12 15 16 13 8 8 9 12 11 10 8 10 6 5 4 2 2 1 1 1 1 3 5
22 22 23 19 19 17 18 19 18 18 19 18 15 14 12 12 14 9 6 6 7 5 6 7 5 3 1 1 1 4 5 6
23 23 19 17 18 20 17 17 16 16 16 17 18 16 16 16 10 10 9 9 3 7 7 3 2 1 1 2 3 4 4 5
Wind_Direction
76 83 110 106 121 124 129 130 140 140 137 131 127 128 123 118 117 111 101 92 88 81 74 75 73 68 72 73 76 80 73 62
87 119 93 104 130 121 123 138 147 147 143 139 135 131 128 124 117 113 95 83 73 72 73 70 68 62 62 70 69 65 65 54
141 95 111 120 114 140 149 160 157 149 143 140 132 126 118 115 113 97 92 86 87 81 71 67 67 59 59 57 57 59 59 54
122 104 111 124 156 163 154 160 155 159 141 143 129 119 121 117 103 96 94 96 87 81 72 66 62 60 55 54 53 50 50 50
164 153 184 182 164 171 159 166 155 140 151 137 132 118 116 108 99 86 98 93 83 79 72 66 64 61 51 50 46 45 43 43
184 169 175 187 173 172 189 163 155 162 167 155 143 134 123 120 118 112 100 91 89 82 81 76 68 62 56 57 50 46 34 29
180 172 178 181 174 174 181 170 167 168 193 190 171 157 140 129 121 113 107 103 97 92 85 77 69 66 68 54 43 38 23 20
177 184 185 170 174 184 188 171 159 156 155 165 153 144 137 127 121 124 113 109 104 97 86 80 71 64 59 48 45 42 35 31
183 180 174 172 179 185 180 161 146 147 148 137 133 136 135 140 134 126 122 114 107 95 87 80 65 62 54 44 36 43 51 47
181 174 173 173 173 175 162 154 154 149 146 139 142 143 143 137 129 129 131 121 105 96 101 83 68 61 53 40 16 36 63 75
179 167 170 167 156 152 153 146 149 148 140 140 148 145 140 134 139 135 134 117 108 115 88 98 67 56 8 20 329 31 102 83
167 162 158 151 139 131 129 136 136 143 157 159 148 146 141 137 136 137 140 127 115 110 109 97 106 71 315 248 303 316 160 111
169 168 166 155 151 151 156 164 161 163 168 158 156 152 150 145 144 150 150 130 125 129 122 94 83 12 97 325 338 311 271 153
175 179 172 174 167 157 150 157 173 169 175 172 168 167 160 156 158 161 151 126 125 116 110 123 104 42 49 61 2 319 325 270
183 186 183 179 165 145 121 116 118 167 184 183 185 178 176 175 171 160 140 139 139 124 120 111 81 24 54 79 338 268 304 306
188 184 183 184 171 173 171 183 180 192 188 185 187 186 181 174 151 141 148 118 121 118 109 101 95 12 324 234 267 246 287 309
188 182 184 184 187 188 191 192 191 175 176 184 188 178 140 149 155 145 128 124 127 115 103 86 94 181 221 291 277 280 238 252
187 186 192 192 191 195 195 198 191 181 181 186 184 150 142 137 125 117 114 114 112 96 83 77 78 82 80 142 249 303 292 261
191 192 200 194 192 198 202 202 194 192 185 184 160 143 135 124 113 105 103 110 102 111 104 101 93 93 62 10 258 267 255 250
192 197 202 193 199 206 204 198 196 194 183 169 163 153 140 130 114 123 133 107 126 126 108 115 97 58 271 267 287 286 272 234